This is the latest recevied weather packets stored in our database for station/object IZ0DPP-10. If no packets are shown the sender has not sent any weather packets the latest 1 day(s).
| Time | Temp. | Humidity | Pressure | Rain* | Wind** | Luminosity | Snow |
|---|---|---|---|---|---|---|---|
| 1778092267 | 19.44° C | 100% | 1015.6 hPa | - | - | - | - |
| 1778085066 | 21.11° C | 100% | 1014.9 hPa | - | - | - | - |
| 1778084166 | 21.11° C | 100% | 1015 hPa | - | - | - | - |
| 1778083266 | 20.56° C | 100% | 1015.1 hPa | - | - | - | - |
| 1778082365 | 21.11° C | 100% | 1015.1 hPa | - | - | - | - |
| 1778078766 | 22.22° C | 100% | 1014.7 hPa | - | - | - | - |
| 1778077866 | 21.67° C | 100% | 1014.7 hPa | - | - | - | - |
| 1778076966 | 22.22° C | 100% | 1014.8 hPa | - | - | - | - |
| 1778068865 | 23.33° C | 100% | 1015.3 hPa | - | - | - | - |
| 1778067965 | 22.22° C | 100% | 1015.3 hPa | - | - | - | - |
| 1778067065 | 22.22° C | 100% | 1015.3 hPa | - | - | - | - |
| 1778061663 | 23.89° C | 100% | 1015.4 hPa | - | - | - | - |
| 1778057166 | 21.11° C | 100% | 1015.5 hPa | - | - | - | - |
| 1778056266 | 20.56° C | 100% | 1015.3 hPa | - | - | - | - |
| 1778055366 | 20.56° C | 100% | 1015.5 hPa | - | - | - | - |
| 1778054466 | 20° C | 100% | 1015.6 hPa | - | - | - | - |
| 1778053566 | 18.89° C | 100% | 1015.7 hPa | - | - | - | - |
| 1778050865 | 19.44° C | 100% | 1015.7 hPa | - | - | - | - |
| 1778047265 | 17.78° C | 100% | 1015.9 hPa | - | - | - | - |
| 1778046365 | 17.78° C | 100% | 1015.8 hPa | - | - | - | - |
| 1778041864 | 17.22° C | 100% | 1015.8 hPa | - | - | - | - |
| 1778040964 | 17.78° C | 100% | 1016.1 hPa | - | - | - | - |
| 1778040064 | 17.78° C | 100% | 1016.3 hPa | - | - | - | - |
| 1778039163 | 17.78° C | 100% | 1016.3 hPa | - | - | - | - |
| 1778038264 | 17.78° C | 100% | 1016.2 hPa | - | - | - | - |
* Rain since midnight (hover to see other rain measurements)
** Current wind speed in m/s (hover to see current wind gust speed)